Tracking 29892 objects as of 21-Nov-2024
HD Live streaming from Space Station
objects crossing your sky now

STARLINK-32278

Track STARLINK-32278 now!
10-day predictions
STARLINK-32278 is classified as:


NORAD ID: 60356
Int'l Code: 2024-138B
Perigee: 453.6 km
Apogee: 455.1 km
Inclination: 53.2 °
Period: 93.5 minutes
Semi major axis: 6825 km
RCS: Unknown
Launch date: August 4, 2024
Source: United States (US)
Launch site: AIR FORCE WESTERN TEST RANGE (AFWTR)
Your satellite tracking list
Your tracking list is empty




NASA's NSSDC Master Catalog

Two Line Element Set (TLE):
1 60356U 24138B   24326.11853436  .00000484  00000-0  22080-4 0  9998
2 60356  53.1596 351.9914 0001087  91.5829 268.5300 15.39616194 18078
Source of the keplerian elements: AFSPC